GW3556 Weather Reports


time (UTC)temp
C
wind
direction
speed
KPH
gust
KPH
rain 1hr
cm
rain 24hr
cm
rain mn
cm
humidity
%
barometer
mb
20260506165515 14 306 4.8 11.3 0.00 0.00 0.00 41 1017.8
20260506165020 14 225 3.2 6.4 0.00 0.00 0.00 43 1018.0
20260506164602 13 15 3.2 6.4 0.00 0.00 0.00 43 1017.9
20260506164020 13 288 1.6 6.4 0.00 0.00 0.00 43 1017.8
20260506163513 13 233 3.2 6.4 0.00 0.00 0.00 43 1017.9
20260506163056 13 198 3.2 6.4 0.00 0.00 0.00 43 1017.7
20260506162522 13 303 1.6 9.7 0.00 0.00 0.00 43 1017.8
20260506162020 13 303 4.8 9.7 0.00 0.00 0.00 42 1017.8
20260506161608 13 11 3.2 8.0 0.00 0.00 0.00 46 1017.8
20260506161020 13 319 4.8 9.7 0.00 0.00 0.00 43 1017.8
20260506160520 13 342 4.8 9.7 0.00 0.00 0.00 44 1018.1
20260506160111 13 340 3.2 12.9 0.00 0.00 0.00 46 1017.9
20260506155516 13 309 6.4 12.9 0.00 0.00 0.00 45 1017.8
20260506155017 13 322 6.4 12.9 0.00 0.00 0.00 45 1017.8
20260506154613 13 327 8.0 12.9 0.00 0.00 0.00 46 1017.8
20260506154017 12 360 4.8 14.5 0.00 0.00 0.00 46 1017.8
20260506153520 12 318 8.0 14.5 0.00 0.00 0.00 46 1017.8
20260506153054 12 341 8.0 17.7 0.00 0.00 0.00 46 1017.9
20260506152519 12 328 8.0 17.7 0.00 0.00 0.00 46 1017.8
20260506152019 12 315 6.4 9.7 0.00 0.00 0.00 46 1017.9
20260506151555 12 315 4.8 9.7 0.00 0.00 0.00 46 1017.8
20260506151020 12 344 4.8 14.5 0.00 0.00 0.00 47 1017.8
20260506150522 12 352 8.0 16.1 0.00 0.00 0.00 48 1017.8
20260506150146 12 339 8.0 16.1 0.00 0.00 0.00 47 1017.8
20260506145531 11 321 8.0 16.1 0.00 0.00 0.00 48 1017.8
20260506145025 11 333 8.0 14.5 0.00 0.00 0.00 48 1017.8
20260506144833 11 346 8.0 14.5 0.00 0.00 0.00 48 1017.8
20260506144018 11 5 9.7 14.5 0.00 0.00 0.00 48 1017.8
20260506143524 11 326 8.0 14.5 0.00 0.00 0.00 48 1017.8
20260506143055 11 330 6.4 12.9 0.00 0.00 0.00 48 1017.8
20260506142522 11 315 4.8 12.9 0.00 0.00 0.00 48 1017.8
20260506142023 11 335 6.4 16.1 0.00 0.00 0.00 48 1017.8
20260506141610 11 323 8.0 16.1 0.00 0.00 0.00 48 1017.9
20260506141024 11 319 6.4 12.9 0.00 0.00 0.00 48 1017.8
20260506140517 11 309 6.4 12.9 0.00 0.00 0.00 47 1017.8
20260506140332 11 334 4.8 9.7 0.00 0.00 0.00 47 1017.8
20260506135515 11 342 6.4 12.9 0.00 0.00 0.00 47 1017.8
20260506135016 11 317 6.4 12.9 0.00 0.00 0.00 47 1017.6
20260506134553 11 323 6.4 12.9 0.00 0.00 0.00 48 1017.7
20260506134015 11 336 8.0 12.9 0.00 0.00 0.00 48 1017.6
20260506133709 11 340 6.4 9.7 0.00 0.00 0.00 48 1017.6
20260506133704 11 337 6.4 9.7 0.00 0.00 0.00 48 1017.6
20260506132514 11 352 6.4 12.9 0.00 0.00 0.00 47 1017.5
20260506132015 11 360 4.8 12.9 0.00 0.00 0.00 48 1017.6
20260506131546 10 316 4.8 9.7 0.00 0.00 0.00 48 1017.5
20260506131013 10 336 6.4 9.7 0.00 0.00 0.00 48 1017.6
20260506130514 10 325 6.4 12.9 0.00 0.00 0.00 49 1017.5
20260506130103 10 313 9.7 12.9 0.00 0.00 0.00 49 1017.7
20260506125517 10 298 8.0 12.9 0.00 0.00 0.00 49 1017.6
20260506125015 10 304 6.4 11.3 0.00 0.00 0.00 48 1017.6
20260506124542 11 306 4.8 9.7 0.00 0.00 0.00 47 1017.5
20260506124016 11 313 4.8 9.7 0.00 0.00 0.00 46 1017.4
20260506123516 11 323 6.4 9.7 0.00 0.00 0.00 46 1017.6
20260506123047 11 321 3.2 6.4 0.00 0.00 0.00 46 1017.5
20260506122517 11 321 3.2 6.4 0.00 0.00 0.00 46 1017.5
20260506122015 11 321 3.2 6.4 0.00 0.00 0.00 46 1017.4
20260506121552 11 315 3.2 6.4 0.00 0.00 0.00 46 1017.5
20260506121016 11 315 3.2 6.4 0.00 0.00 0.00 46 1017.5
20260506120520 11 315 3.2 4.8 0.00 0.00 0.00 47 1017.5
20260506120057 11 315 1.6 4.8 0.00 0.00 0.00 47 1017.5
20260506115517 11 315 1.6 4.8 0.00 0.00 0.00 47 1017.5
20260506115026 11 315 1.6 4.8 0.00 0.00 0.00 47 1017.5
20260506114541 11 315 3.2 4.8 0.00 0.00 0.00 46 1017.4
20260506114019 11 315 1.6 3.2 0.00 0.00 0.00 46 1017.4
20260506113515 11 315 0.0 6.4 0.00 0.00 0.00 46 1017.4
20260506113052 11 315 3.2 6.4 0.00 0.00 0.00 46 1017.4
20260506112518 11 342 3.2 4.8 0.00 0.00 0.00 46 1017.4
20260506112013 11 342 1.6 4.8 0.00 0.00 0.00 45 1017.4
20260506111548 11 342 1.6 6.4 0.00 0.00 0.00 45 1017.4
20260506111016 11 342 1.6 6.4 0.00 0.00 0.00 46 1017.4
20260506110518 11 343 3.2 8.0 0.00 0.00 0.00 46 1017.3
20260506110047 11 342 3.2 8.0 0.00 0.00 0.00 46 1017.4
20260506105518 11 326 3.2 8.0 0.00 0.00 0.00 46 1017.4
20260506105023 11 323 4.8 8.0 0.00 0.00 0.00 46 1017.3
20260506104605 11 325 3.2 8.0 0.00 0.00 0.00 45 1017.4
20260506104129 11 337 4.8 8.0 0.00 0.00 0.00 45 1017.4
20260506103514 11 327 4.8 8.0 0.00 0.00 0.00 45 1017.4
20260506103041 11 327 3.2 8.0 0.00 0.00 0.00 45 1017.4
20260506102521 11 340 4.8 8.0 0.00 0.00 0.00 45 1017.4
20260506102016 11 327 4.8 12.9 0.00 0.00 0.00 45 1017.4
20260506101557 11 326 4.8 12.9 0.00 0.00 0.00 45 1017.4
20260506101016 11 333 6.4 9.7 0.00 0.00 0.00 45 1017.4
20260506100528 11 333 4.8 12.9 0.00 0.00 0.00 45 1017.4
20260506100106 11 327 4.8 12.9 0.00 0.00 0.00 45 1017.4
20260506095515 11 342 4.8 8.0 0.00 0.00 0.00 45 1017.5
20260506095013 11 331 4.8 8.0 0.00 0.00 0.00 45 1017.4
20260506094552 11 331 4.8 8.0 0.00 0.00 0.00 45 1017.4
20260506094013 12 342 3.2 6.4 0.00 0.00 0.00 45 1017.4
20260506093516 12 338 3.2 8.0 0.00 0.00 0.00 45 1017.5
20260506093048 12 340 4.8 8.0 0.00 0.00 0.00 45 1017.6
20260506092514 12 343 4.8 8.0 0.00 0.00 0.00 45 1017.6
20260506092015 12 340 4.8 8.0 0.00 0.00 0.00 45 1017.6
20260506091548 12 349 4.8 8.0 0.00 0.00 0.00 45 1017.6
20260506091017 12 336 3.2 9.7 0.00 0.00 0.00 45 1017.6
20260506090519 12 317 4.8 9.7 0.00 0.00 0.00 45 1017.6
20260506090051 12 332 4.8 9.7 0.00 0.00 0.00 45 1017.6
20260506085513 12 329 4.8 12.9 0.00 0.00 0.00 45 1017.6
20260506085016 12 315 6.4 12.9 0.00 0.00 0.00 45 1017.8
20260506084555 12 315 8.0 12.9 0.00 0.00 0.00 45 1017.6
20260506084011 12 327 8.0 12.9 0.00 0.00 0.00 45 1017.6
20260506083549 12 321 6.4 12.9 0.00 0.00 0.00 45 1017.6
20260506083531 12 322 6.4 14.5 0.00 0.00 0.00 45 1017.7
20260506082516 12 329 8.0 14.5 0.00 0.00 0.00 46 1017.6
20260506082026 12 321 6.4 14.5 0.00 0.00 0.00 46 1017.6
20260506081603 12 333 6.4 14.5 0.00 0.00 0.00 46 1017.6
20260506081018 12 325 8.0 12.9 0.00 0.00 0.00 46 1017.6
20260506080515 12 333 6.4 9.7 0.00 0.00 0.00 46 1017.6
20260506080321 12 341 4.8 14.5 0.00 0.00 0.00 46 1017.6
20260506073522 12 331 9.7 17.7 0.00 0.00 0.00 47 1017.6
20260506073323 12 321 11.3 16.1 0.00 0.00 0.00 47 1017.6
20260506072516 12 317 11.3 17.7 0.00 0.00 0.00 47 1017.5
20260506072354 12 311 9.7 12.9 0.00 0.00 0.00 48 1017.6
20260506071822 12 319 9.7 14.5 0.00 0.00 0.00 47 1017.6
20260506071016 12 308 8.0 14.5 0.00 0.00 0.00 47 1017.6
20260506070519 12 312 8.0 14.5 0.00 0.00 0.00 47 1017.6
20260506062516 12 319 9.7 16.1 0.00 0.00 0.00 46 1017.4
20260506062018 12 320 9.7 16.1 0.00 0.00 0.00 46 1017.4
20260506061611 12 323 8.0 14.5 0.00 0.00 0.00 47 1017.4
20260506061018 12 329 9.7 17.7 0.00 0.00 0.00 47 1017.3
20260506060516 12 304 11.3 17.7 0.00 0.00 0.00 47 1017.3
20260506060129 12 327 8.0 14.5 0.00 0.00 0.00 47 1017.5
20260506051018 13 312 8.0 19.3 0.00 0.00 0.00 46 1017.3
20260506050528 13 314 12.9 20.9 0.00 0.00 0.00 45 1017.3
20260506050521 13 307 16.1 20.9 0.00 0.00 0.00 45 1017.2
20260506045016 13 315 12.9 19.3 0.00 0.00 0.00 45 1017.3
20260506044557 13 325 12.9 19.3 0.00 0.00 0.00 45 1017.2
20260506044017 13 304 12.9 19.3 0.00 0.00 0.00 45 1017.2
20260506043519 13 309 14.5 20.9 0.00 0.00 0.00 45 1017.2
20260506043111 14 307 12.9 22.5 0.00 0.00 0.00 45 1017.1
20260506042518 13 286 11.3 22.5 0.00 0.00 0.00 45 1017.2
20260506042021 13 307 14.5 20.9 0.00 0.00 0.00 44 1017.0
20260506041609 13 284 12.9 19.3 0.00 0.00 0.00 45 1016.9
20260506041021 13 300 14.5 20.9 0.00 0.00 0.00 45 1017.0
20260506040518 14 302 12.9 16.1 0.00 0.00 0.00 45 1017.0
20260506040110 14 288 12.9 19.3 0.00 0.00 0.00 44 1017.0
20260506035518 14 345 11.3 19.3 0.00 0.00 0.00 44 1016.9
20260506035017 14 283 8.0 14.5 0.00 0.00 0.00 47 1016.9
20260506034618 14 280 8.0 12.9 0.00 0.00 0.00 47 1016.8
20260506034021 14 272 8.0 12.9 0.00 0.00 0.00 47 1016.8
20260506033517 14 277 8.0 11.3 0.00 0.00 0.00 47 1016.8
20260506033056 14 271 6.4 14.5 0.00 0.00 0.00 47 1016.7
20260506032516 14 261 4.8 16.1 0.00 0.00 0.00 46 1016.4
20260506032017 15 237 4.8 16.1 0.00 0.00 0.00 46 1016.3
20260506031548 15 267 3.2 12.9 0.00 0.00 0.00 45 1016.3
20260506031016 16 209 3.2 14.5 0.00 0.00 0.00 43 1016.2
20260506030512 16 201 3.2 14.5 0.00 0.00 0.00 42 1016.3
20260506030040 16 258 3.2 12.9 0.00 0.00 0.00 41 1016.3
20260506025515 16 167 4.8 11.3 0.00 0.00 0.00 40 1016.3
20260506025015 17 211 1.6 9.7 0.00 0.00 0.00 39 1016.2
20260506024548 17 224 4.8 9.7 0.00 0.00 0.00 38 1016.0
20260506024015 17 144 1.6 9.7 0.00 0.00 0.00 37 1016.1
20260506023516 18 200 3.2 12.9 0.00 0.00 0.00 36 1016.2
20260506023038 18 232 4.8 12.9 0.00 0.00 0.00 36 1016.1
20260506022516 18 75 1.6 14.5 0.00 0.00 0.00 33 1016.1
20260506022016 18 232 1.6 22.5 0.00 0.00 0.00 33 1016.2
20260506021544 18 273 16.1 20.9 0.00 0.00 0.00 31 1016.0
20260506021016 18 303 8.0 16.1 0.00 0.00 0.00 31 1016.1
20260506020518 18 331 6.4 12.9 0.00 0.00 0.00 31 1016.1
20260506020044 18 169 1.6 24.1 0.00 0.00 0.00 31 1016.1
20260506015514 18 325 11.3 24.1 0.00 0.00 0.00 30 1016.2
20260506015016 18 290 12.9 22.5 0.00 0.00 0.00 30 1016.2
20260506014541 18 265 8.0 19.3 0.00 0.00 0.00 31 1016.2
20260506014013 18 166 3.2 11.3 0.00 0.00 0.00 31 1016.2
20260506013517 19 270 4.8 14.5 0.00 0.00 0.00 31 1016.3
20260506013042 20 335 9.7 16.1 0.00 0.00 0.00 29 1016.3
20260506012527 20 262 4.8 19.3 0.00 0.00 0.00 30 1016.3
20260506012013 20 236 6.4 22.5 0.00 0.00 0.00 31 1016.3
20260506011547 18 282 12.9 22.5 0.00 0.00 0.00 31 1016.1
20260506011027 18 285 12.9 19.3 0.00 0.00 0.00 32 1016.2
20260506010524 18 272 9.7 16.1 0.00 0.00 0.00 32 1016.3
20260506010120 18 289 8.0 16.1 0.00 0.00 0.00 30 1016.3
20260506005527 20 332 9.7 16.1 0.00 0.00 0.00 29 1016.5
20260506005015 20 281 9.7 14.5 0.00 0.00 0.00 28 1016.1
20260506004545 21 246 1.6 12.9 0.00 0.00 0.00 30 1016.2
20260506004025 20 266 4.8 16.1 0.00 0.00 0.00 32 1016.3
20260506003515 19 266 3.2 17.7 0.00 0.00 0.00 30 1016.5
20260506003044 20 295 11.3 17.7 0.00 0.00 0.00 29 1016.4
20260506002518 20 296 9.7 17.7 0.00 0.00 0.00 29 1016.4
20260506002016 20 291 8.0 16.1 0.00 0.00 0.00 32 1016.4
20260506001600 19 279 6.4 16.1 0.00 0.00 0.00 31 1016.3
20260506001018 19 320 8.0 14.5 0.00 0.00 0.00 31 1016.5
20260506000518 18 313 4.8 17.7 0.00 0.00 0.00 32 1016.5
20260506000043 18 250 3.2 19.3 0.00 0.00 0.00 30 1016.5
20260505235517 18 336 9.7 16.1 0.00 0.00 0.00 31 1016.6
20260505235015 18 300 3.2 19.3 0.00 0.00 0.00 31 1016.7
20260505234542 18 286 9.7 19.3 0.00 0.00 0.00 30 1016.6
20260505234016 18 289 6.4 11.3 0.00 0.00 0.00 31 1016.7
20260505233515 17 304 4.8 14.5 0.00 0.00 0.00 31 1016.7
20260505233047 17 289 6.4 17.7 0.00 0.00 0.00 30 1016.8
20260505232519 18 299 12.9 17.7 0.00 0.00 0.00 30 1016.6
20260505232013 19 313 9.7 19.3 0.00 0.00 0.00 29 1016.8
20260505231549 19 303 8.0 20.9 0.00 0.00 0.00 30 1016.7
20260505231015 19 309 11.3 22.5 0.00 0.00 0.00 28 1016.7
20260505230517 18 307 12.9 25.7 0.00 0.00 0.00 28 1016.7
20260505230052 19 288 9.7 25.7 0.00 0.00 0.00 27 1017.0
20260505225516 20 313 11.3 17.7 0.00 0.00 0.00 29 1016.9
20260505225016 19 319 11.3 19.3 0.00 0.00 0.00 29 1016.8
20260505224544 19 316 14.5 24.1 0.00 0.00 0.00 29 1016.9
20260505224015 19 348 14.5 24.1 0.00 0.00 0.00 28 1017.0
20260505223515 19 319 11.3 24.1 0.00 0.00 0.00 28 1017.1
20260505223045 19 311 14.5 22.5 0.00 0.00 0.00 28 1017.2
20260505222515 19 329 14.5 29.0 0.00 0.00 0.00 28 1017.1
20260505222017 18 298 11.3 29.0 0.00 0.00 0.00 29 1017.2
20260505221540 18 302 14.5 22.5 0.00 0.00 0.00 29 1017.2
20260505221017 18 360 11.3 20.9 0.00 0.00 0.00 27 1017.2
20260505220516 18 326 12.9 25.7 0.00 0.00 0.00 28 1017.1
20260505220053 18 304 14.5 25.7 0.00 0.00 0.00 28 1017.3
20260505215518 18 313 12.9 25.7 0.00 0.00 0.00 28 1017.3
20260505215016 18 295 11.3 24.1 0.00 0.00 0.00 28 1017.3
20260505214549 17 345 12.9 27.4 0.00 0.00 0.00 29 1017.4
20260505214014 18 293 19.3 27.4 0.00 0.00 0.00 27 1017.3
20260505213516 17 315 8.0 38.6 0.00 0.00 0.00 29 1017.2
20260505213116 18 275 19.3 29.0 0.00 0.00 0.00 28 1017.2
20260505212516 18 319 17.7 29.0 0.00 0.00 0.00 29 1017.2
20260505212015 17 275 19.3 27.4 0.00 0.00 0.00 30 1017.3
20260505211554 18 292 17.7 25.7 0.00 0.00 0.00 29 1017.4
20260505211021 17 294 17.7 29.0 0.00 0.00 0.00 31 1017.4
20260505210516 17 280 12.9 29.0 0.00 0.00 0.00 31 1017.5
20260505210054 18 283 17.7 25.7 0.00 0.00 0.00 30 1017.5
20260505205517 18 263 17.7 24.1 0.00 0.00 0.00 31 1017.6
20260505205020 17 276 11.3 24.1 0.00 0.00 0.00 31 1017.6
20260505204547 17 289 9.7 22.5 0.00 0.00 0.00 30 1017.6
20260505204018 17 262 16.1 24.1 0.00 0.00 0.00 30 1017.4
20260505203516 17 294 11.3 25.7 0.00 0.00 0.00 32 1017.6
20260505203053 17 285 17.7 25.7 0.00 0.00 0.00 32 1017.4
20260505202521 17 294 8.0 19.3 0.00 0.00 0.00 32 1017.5
20260505202026 17 310 11.3 25.7 0.00 0.00 0.00 32 1017.5
20260505201552 17 288 17.7 25.7 0.00 0.00 0.00 32 1017.5
20260505201016 17 325 9.7 24.1 0.00 0.00 0.00 32 1017.5
20260505200517 17 280 11.3 22.5 0.00 0.00 0.00 32 1017.6
20260505195516 17 292 11.3 17.7 0.00 0.00 0.00 34 1017.6
20260505195016 17 320 6.4 19.3 0.00 0.00 0.00 33 1017.8
20260505194610 17 319 9.7 19.3 0.00 0.00 0.00 34 1017.8
20260505194022 16 295 8.0 20.9 0.00 0.00 0.00 33 1017.6
20260505193520 16 269 6.4 20.9 0.00 0.00 0.00 34 1017.7
20260505193110 16 304 6.4 14.5 0.00 0.00 0.00 36 1017.6
20260505192518 16 279 1.6 19.3 0.00 0.00 0.00 32 1017.7
20260505192017 17 292 9.7 16.1 0.00 0.00 0.00 33 1017.8
20260505191609 17 337 8.0 16.1 0.00 0.00 0.00 34 1017.7
20260505191020 17 313 6.4 14.5 0.00 0.00 0.00 34 1017.6
20260505190519 17 294 9.7 16.1 0.00 0.00 0.00 34 1017.9
20260505190107 16 312 8.0 16.1 0.00 0.00 0.00 35 1018.0
20260505185517 16 294 4.8 19.3 0.00 0.00 0.00 35 1017.9
20260505185017 16 306 8.0 19.3 0.00 0.00 0.00 37 1017.8
20260505184550 15 304 4.8 22.5 0.00 0.00 0.00 36 1017.9
20260505184024 16 310 11.3 22.5 0.00 0.00 0.00 35 1017.9
20260505183657 15 306 6.4 20.9 0.00 0.00 0.00 38 1017.9
20260505183145 15 311 11.3 20.9 0.00 0.00 0.00 37 1017.8
20260505182520 15 258 8.0 20.9 0.00 0.00 0.00 37 1017.7
20260505182022 16 281 8.0 20.9 0.00 0.00 0.00 37 1017.7
20260505181620 16 315 4.8 9.7 0.00 0.00 0.00 38 1017.8
20260505181019 16 12 6.4 14.5 0.00 0.00 0.00 36 1017.7
20260505180514 16 319 6.4 14.5 0.00 0.00 0.00 39 1017.7
20260505180512 15 298 6.4 16.1 0.00 0.00 0.00 38 1017.6
20260505175517 15 288 9.7 16.1 0.00 0.00 0.00 37 1017.6
20260505175028 15 329 9.7 14.5 0.00 0.00 0.00 38 1017.7
20260505174546 15 310 8.0 24.1 0.00 0.00 0.00 39 1017.7
20260505174026 15 296 8.0 19.3 0.00 0.00 0.00 39 1017.6
20260505173512 15 332 9.7 19.3 0.00 0.00 0.00 38 1017.7
20260505173509 15 304 4.8 19.3 0.00 0.00 0.00 40 1017.7
20260505172516 14 313 9.7 19.3 0.00 0.00 0.00 40 1017.7
20260505172022 14 295 12.9 17.7 0.00 0.00 0.00 39 1017.6
20260505171619 14 298 6.4 14.5 0.00 0.00 0.00 40 1017.7
20260505171019 14 304 4.8 12.9 0.00 0.00 0.00 40 1017.6
20260505170514 14 304 3.2 12.9 0.00 0.00 0.00 41 1017.6
20260505170041 14 303 6.4 14.5 0.00 0.00 0.00 42 1017.8